Miscellaneous Local Product
Issued by NWS Hastings, NE

Home | Current Version | Previous Version | Text Only | Print | Product List | Glossary On
Versions: 1 2 3 4 5 6 7 8 9 10 11 12 13 14 15 16 17 18 19 20 21 22 23 24 25 26 27 28 29 30 31 32 33 34 35 36 37 38 39 40 41 42 43 44 45 46 47 48 49 50
737
AXUS43 KGID 231302
MISGRI

GID CWA HOURLY WEATHER ROUNDUP
NATIONAL WEATHER SERVICE HASTINGS NE
800 AM CDT WED AUG 23 2017

NOTE: "FAIR" INDICATES FEW OR NO CLOUDS BELOW 12,000 FEET WITH NO
SIGNIFICANT WEATHER AND/OR OBSTRUCTIONS TO VISIBILITY.

...SOUTH CENTRAL NEBRASKA...

CITY           SKY/WX    TMP DP  RH WIND       PRES   REMARKS
GRAND ISLAND   SUNNY     60  53  77 S10       30.18R
HASTINGS       SUNNY     57  51  80 S6        30.19S
KEARNEY        SUNNY     56  53  90 S7        30.19R
ORD            SUNNY     57  52  83 E3        30.15R
YORK           SUNNY     55  54  94 S3        30.18S
AURORA         SUNNY     59  53  80 S9        30.18R
LEXINGTON      SUNNY     58  52  79 S7        30.18S
HOLDREGE       SUNNY     57  51  82 S7        30.18S
HEBRON         SUNNY     55  53  93 CALM      30.19R

...NEBRASKA PANHANDLE...

CITY           SKY/WX    TMP DP  RH WIND       PRES   REMARKS
CHADRON        CLEAR     62  54  74 S9        30.08R
ALLIANCE       CLEAR     55  49  80 S7        30.13R
SCOTTSBLUFF    CLEAR     56  52  86 E6        30.12S
SIDNEY         CLEAR     57  52  83 S9        30.16R

...WESTERN AND NORTH CENTRAL NEBRASKA...

CITY           SKY/WX    TMP DP  RH WIND       PRES   REMARKS
VALENTINE      PTSUNNY   62  52  69 S5        30.10S
AINSWORTH      SUNNY     60  53  78 S10G16    30.12S
ONEILL         CLOUDY    58  55  89 S6        30.15R
BROKEN BOW     SUNNY     58  53  84 S5        30.16S
IMPERIAL       CLEAR     58  47  66 S12       30.18S
NORTH PLATTE   SUNNY     59  51  75 SE5       30.17S
MCCOOK         SUNNY     59  51  75 S6        30.18R

...EASTERN NEBRASKA...

CITY           SKY/WX    TMP DP  RH WIND       PRES   REMARKS
NORFOLK        SUNNY     56  54  93 E3        30.16S
SO SIOUX CITY  SUNNY     55  55 100 CALM      30.17R
TEKAMAH        MOSUNNY   54  53  97 CALM      30.17R FOG
COLUMBUS       SUNNY     57  55  93 CALM      30.18S
ALBION         CLOUDY    58  55  89 CALM      30.17S
OMAHA EPPLEY   SUNNY     60  56  86 E3        30.17R
OFFUTT AFB     SUNNY     56  56  97 CALM      30.17R
MILLARD        SUNNY     59  57  92 CALM      30.17S
LINCOLN        SUNNY     57  55  93 S3        30.18S
NEBRASKA CITY  SUNNY     59  57  94 CALM      30.17S
BEATRICE       SUNNY     57  55  92 CALM      30.18S
FALLS CITY     SUNNY     55  54  96 CALM      30.16R

...NORTHERN KANSAS...

CITY           SKY/WX    TMP DP  RH WIND       PRES   REMARKS
GOODLAND       CLEAR     55  48  77 S14       30.20S
HILL CITY      SUNNY     57  51  80 S3        30.21R
NORTON         SUNNY     57  46  67 S7        30.19
PHILLIPSBURG   SUNNY     55  55 100 CALM      30.19S
SMITH CENTER   MOSUNNY   54  52  94 CALM      30.20R
HAYS           SUNNY     55  51  86 CALM      30.20S
RUSSELL        SUNNY     57  51  80 S7        30.18S
CONCORDIA      SUNNY     57  54  89 SE3       30.18S
SALINA         SUNNY     59  52  77 CALM      30.19R
TOPEKA         MOSUNNY   59  58  96 CALM      30.17S



USA.gov is the U.S. government's official web portal to all federal, state and local government web resources and services.